Regional Weather Roundup
Issued by NWS Albany, NY

Home | Current Version | Previous Version | Text Only | Print | Product List | Glossary On
Versions: 1 2 3 4 5 6 7 8 9 10 11 12 13 14 15 16 17 18 19 20 21 22 23 24 25 26 27 28 29 30 31 32 33 34 35 36 37 38 39 40 41 42 43 44 45 46 47 48
000
ASUS41 KALY 040910
RWRALY

NEW YORK STATE HOURLY WEATHER ROUNDUP
NATIONAL WEATHER SERVICE ALBANY NY
500 AM EDT FRI SEP 04 2015

NOTE: "FAIR" INDICATES FEW OR NO CLOUDS BELOW 12,000 FEET WITH NO
SIGNIFICANT WEATHER AND/OR NO OBSTRUCTIONS TO VISIBILITY.

NYZ032-033-038>043-046>054-057>066-NYZ062>081-041000-
EAST


CITY           SKY/WX    TMP DP  RH WIND       PRES   REMARKS
ALBANY         PTCLDY    67  56  67 N8        30.01R
GLENS FALLS    CLEAR     60  53  77 NE3       30.04R
POUGHKEEPSIE   CLEAR     68  65  90 CALM      29.97R
MONTGOMERY     CLEAR     67  65  93 CALM      29.98R
WHITE PLAINS   CLEAR     73  66  78 N7        29.94S
ISLIP          CLEAR     73  69  87 NE6       29.91S
NEW YORK CITY  PTCLDY    77  66  68 NE5       29.92S
CENTRAL PARK   CLEAR     77  66  68 VRB5      29.96R
$$

NYZ005>009-017-018-044>046-055-056-041000-
CENTRAL


CITY           SKY/WX    TMP DP  RH WIND       PRES   REMARKS
FULTON         CLEAR     63  60  90 CALM      30.02R FOG
SYRACUSE       FOG       64  64 100 E3        30.02R VSB 1/2
ROME           CLEAR     62  61  96 CALM      30.03S
ELMIRA         CLOUDY    69  69 100 W3        30.02R FOG
BINGHAMTON     PTCLDY    64  64 100 E6        30.04S FOG
MONTICELLO     CLEAR     64  64 100 NE3       30.03S
$$

NYZ026>034-041>043-041000-
NORTH


CITY           SKY/WX    TMP DP  RH WIND       PRES   REMARKS
WATERTOWN      CLEAR     59  58  96 NE7       30.04R FOG
FORT DRUM      NOT AVBL
MASSENA        CLEAR     52  46  80 CALM      30.10S
SARANAC LAKE   CLEAR     39  38  96 N3        30.11R
PLATTSBURGH    CLEAR     54  48  80 W5        30.09R
$$

NYZ001>004-010>016-019>021-041000-
WEST


CITY           SKY/WX    TMP DP  RH WIND       PRES   REMARKS
NIAGARA FALLS  MOCLDY    68  66  93 E6        30.01R
BUFFALO        PTCLDY    69  65  86 NE5       30.02R
DUNKIRK        PTCLDY    68  66  93 CALM      30.01R FOG
JAMESTOWN      PTCLDY    66  64  94 NW3       30.05R
WELLSVILLE     CLOUDY    67  65  93 CALM      30.09R FOG
ROCHESTER      CLEAR     65  63  93 SW3       30.02S FOG
PENN YAN       FOG       62  62 100 S3        30.03S VSB 1
$$

             KEY
       WCI = WIND CHILL INDEX
       VSB = VISIBILITY
       HX  = HEAT INDEX
$$



USA.gov is the U.S. government's official web portal to all federal, state and local government web resources and services.